www.pogodaiklimat.ru

Погода и климат >> Архив погоды >> Туркменистан >> Екеже


АРХИВ ПОГОДЫ в Екеже

Время (UTC), дата Ветер
(напр.,м/с)
 
Видим.   Явления Облачность Т
(С)
Тd
(С)
f
(%)
Тe
(С)
Тes
(С)
Комфортность P
(гПа)
Po
(гПа)
Тmin
(С)
Tmax
(С)
R
(мм)
R24
(мм)
S
(см)
06 15.09 СВ 1 20 км ясно +25.4 +6.1 29 +25 +36 комфорт 1021.7 1015.0 +10.6
09 15.09 ЮЗ 3 20 км 3/3 1000 м
[Cu hum]
+28.0 +5.6 24 +27 +34 жарко 1020.4 1013.9
12 15.09 ЮЗ 2 20 км ясно +29.3 +4.8 21 +28 +31 жарко 1019.8 1013.3
15 15.09 С 2 20 км ясно +24.6 +2.7 24 +24 +24 комфорт 1019.6 1013.0 +29.7
18 15.09 В 3 20 км ясно +20.4 +0.6 27 +21 +21 комфорт 1019.9 1013.2 +29.7
21 15.09 В 3 20 км ясно +18.0 +0.9 32 +18 +18 1020.3 1013.6
00 16.09 штиль 0 20 км ясно +12.4 -1.4 38 +12 +12 1020.4 1013.4
03 16.09 штиль 0 20 км 3/0
[Ci ing]
+11.5 -0.9 42 +11 +12 1022.0 1015.1 +11.3
06 16.09 Ю 3 20 км ясно +26.2 +5.6 27 +26 +33 жарко 1021.9 1015.2 +11.3
09 16.09 Ю 4 20 км ясно +30.6 +5.1 20 +29 +37 жарко 1019.9 1013.4
15 16.09 штиль 0 20 км ясно +25.0 +1.3 21 +24 +24 комфорт 1017.7 1011.1 +32.0
18 16.09 В 2 20 км ясно +17.6 -2.2 26 +18 +18 1017.5 1010.8 +32.0
21 16.09 В 1 20 км ясно +15.4 -1.2 32 +16 +16 1017.3 1010.4
00 17.09 ЮВ 1 20 км ясно +13.0 -1.7 36 +14 +14 1016.5 1009.6
03 17.09 В 2 20 км ясно +19.4 +0.2 28 +20 +21 1016.5 1009.8 +12.5
06 17.09 В 7 20 км 6/0
[Ac trans]
+28.8 +3.8 20 +27 +29 жарко 1016.4 1009.9 +12.5
09 17.09 ЮВ 6 20 км ясно +32.2 +4.0 17 +30 +35 жарко 1014.2 1007.7
12 17.09 В 6 20 км ясно +33.2 +2.5 14 +30 +32 жарко 1011.1 1004.7
15 17.09 В 2 20 км ясно +29.2 -1.2 14 +26 +26 жарко 1010.3 1003.8 +33.6
18 17.09 В 3 20 км ясно +25.2 -4.4 14 +23 +23 комфорт 1009.7 1003.1 +33.6
21 17.09 ЮВ 3 20 км ясно +23.8 -3.0 17 +22 +22 комфорт 1009.3 1002.7
03 18.09 В 2 20 км 6/0
[Ac cast]
+17.2 -3.6 24 +18 +18 1009.6 1002.8 +17.0
06 18.09 С 1 20 км 3/0
[Ac cast]
+26.4 +1.3 19 +25 +33 комфорт 1010.6 1004.0 +17.0
09 18.09 СЗ 4 20 км ясно +31.8 +12.5 31 +32 +41 жарко 1010.9 1004.4
12 18.09 СЗ 5 20 км ясно +33.4 +10.5 25 +33 +35 жарко 1011.5 1005.1
15 18.09 З 2 20 км ясно +29.8 +8.5 26 +29 +29 жарко 1013.7 1007.2 +33.8
18 18.09 С 1 20 км ясно +24.6 +5.9 30 +24 +24 комфорт 1015.3 1008.7 +33.8
21 18.09 С 1 20 км ясно +21.8 +4.5 32 +22 +22 комфорт 1015.7 1009.0
00 19.09 штиль 0 20 км ясно +17.8 +4.3 41 +18 +18 1016.0 1009.3
03 19.09 штиль 0 20 км ясно +15.2 +4.5 49 +15 +16 1017.0 1010.1 +15.0
06 19.09 В 2 20 км ясно +28.4 +9.7 31 +28 +37 жарко 1017.6 1011.1 +15.0
09 19.09 В 1 20 км ясно +32.8 +10.3 25 +32 +46 жарко 1016.0 1009.6
12 19.09 В 2 20 км ясно +34.2 +9.4 22 +33 +37 жарко 1014.7 1008.3
15 19.09 В 1 20 км ясно +28.8 +6.7 25 +28 +28 жарко 1015.2 1008.7 +34.6
18 19.09 В 2 20 км ясно +25.6 +6.4 29 +25 +25 комфорт 1016.2 1009.6 +34.6
21 19.09 СВ 1 20 км ясно +21.6 +4.8 33 +22 +22 комфорт 1016.5 1009.8
03 20.09 штиль 0 20 км ясно +17.2 +5.1 45 +17 +18 1017.2 1010.3 +17.1
06 20.09 ЮВ 2 20 км ясно +29.0 +9.5 30 +29 +38 жарко 1017.3 1010.8 +17.1
09 20.09 Ю 1 20 км ясно +34.6 +9.7 22 +34 +47 очень
жарко
1015.4 1009.0
12 20.09 Ю 1 20 км ясно +35.2 +9.0 20 +34 +38 очень
жарко
1013.5 1007.1
15 20.09 В 2 20 км ясно +31.2 +7.1 22 +30 +30 жарко 1013.1 1006.6 +35.6
18 20.09 В 2 20 км ясно +27.4 +5.0 24 +26 +26 жарко 1012.4 1005.8 +35.6
21 20.09 В 2 20 км ясно +23.5 +4.6 29 +23 +23 комфорт 1012.2 1005.6
03 21.09 В 1 20 км ясно +19.0 +3.2 35 +20 +21 1009.7 1003.0 +18.8
06 21.09 В 3 20 км ясно +30.4 +7.6 24 +29 +37 жарко 1008.3 1001.8 +18.8
09 21.09 В 4 20 км ясно +36.4 +7.4 17 +34 +42 очень
жарко
1005.1 998.7
12 21.09 ЮВ 4 20 км ясно +37.6 +8.1 17 +36 +38 очень
жарко
1002.8 996.6
15 21.09 штиль 0 20 км ясно +30.8 +3.8 18 +29 +29 жарко 1002.4 995.9 +38.0
18 21.09 штиль 0 20 км ясно +23.8 +3.2 26 +23 +23 комфорт 1003.0 996.4 +38.0
21 21.09 штиль 0 20 км ясно +21.0 +3.0 30 +21 +21 комфорт 1003.5 996.8
00 22.09 СЗ 3 20 км ясно +18.8 +5.6 42 +19 +19 1006.9 1000.2
03 22.09 СЗ 7 20 км 9/9 600 м
[Cb cap]
+17.7 +5.9 46 +17 +17 1011.3 1004.6 +17.5

 

Местоположение метеостанции Екеже (Дашогузский велаят, Туркменистан): широта 41.03 долгота 57.77 высота над уровнем моря 62 м.

В архиве по умолчанию представлена погода в Екеже за последнюю неделю. Архивные данные за месяц целиком и за предыдущие месяцы, начиная с января 2011 года, Вы можете получить, выбрав интересующий диапазон дат из раскрывающегося списка и нажав кнопку "Ввод!".


*Определитесь, кто Вы:
робот инопланетянин человек

Внимание! Время в таблицах - всемирное. Для получения местного времени необходимо прибавить поправку, которая равна 5 ч.

Смотрите также архив погоды в соседних городах и на ближайших метеорологических станциях:

Погода в Шах-Сенеме (Дашогузский велаят, Туркменистан) (100 км)
Погода в Дервезе (Дашогузский велаят, Туркменистан) (112 км)
Погода в Кенеургенче (Дашогузский велаят, Туркменистан) (181 км)
Погода в Дашогузе (Дашогузский велаят, Туркменистан) (189 км)
Погода в Ербенте (Ахалский велаят, Туркменистан) (203 км)
Погода в Чагыле (Балканский велаят, Туркменистан) (207 км)
Погода в Тахиаташе (Каракалпакстан, Узбекистан) (215 км)
Погода в Нукусе (Каракалпакстан, Узбекистан) (220 км)
Погода в Хиве (Хорезмская область, Узбекистан) (222 км)
Погода в Тахтакупыре (Каракалпакстан, Узбекистан) (223 км)

Пояснения к столбцам:

Ветер - указаны скорость ветра в м/с - средняя за 10 мин, порывы в срок и между сроками (в фигурных скобках) и направление, откуда дует ветер: С - северный, СВ - северо-восточный, В - восточный, ЮВ - юго-восточный, Ю - южный, ЮЗ - юго-западный, З - западный, СЗ - северо-западный.
Видимость - горизонтальная дальность видимости в метрах или километрах. При видимости от 1 до 10 км при отсутствии осадков обычно наблюдается дымка, при ухудшении видимости до 1 км и менее - туман. В сухую погоду видимость может ухудшаться дымом, пылью или мглою.
Явления - указаны атмосферные явления, наблюдавшиеся в срок или в последний час перед сроком; фигурными скобками обозначены явления, наблюдавшиеся между сроками (за 1-3 часа до срока); квадратными скобками обозначены град или гололедные отложения с указанием их диаметра в мм.
Облачность - указаны через наклонную черту общая и нижняя облачность в баллах и высота нижней границы облаков в метрах; квадратными скобками обозначены формы облаков: Ci - перистые, Cs - перисто-слоистые, Cc - перисто-кучевые, Ac - высококучевые, As - высокослоистые, Sc - слоисто-кучевые, Ns - слоисто-дождевые, Cu - кучевые, Cb - кучево-дождевые. Подробнее классификацию облаков см. в Атласе облаков (PDF).
T - Температура воздуха - температура, измеренная на высоте 2 м над землей.
Td - Температура точки росы - температура, при понижении до которой содержащийся в воздухе водяной пар достигнет насыщения.
f - Относительная влажность воздуха - влажноcть воздуха, измеренная на высоте 2 м над землей.
Te - Эффективная температура - температура, которую ощущает одетый по сезону человек в тени. Характеристика душности погоды. При расчете учитывается влияние влажности воздуха и скорости ветра на теплоощущения человека.
Tes - Эффективная температура на солнце - температура, которую ощущает человек, с поправкой на солнечный нагрев. Характеристика знойности погоды. Зависит от высоты солнца над горизонтом, облачности и скорости ветра. Ночью, в пасмурную погоду, а также при ветре 12 м/с и более поправка равна нулю.
P - Атмосферное давление - приведенное к уровню моря атмосферное давление.
Po - Атмосферное давление - измеренное на уровне метеостанции атмосферное давление.
Tmin - Минимальная температура - минимум температуры воздуха на высоте 2 м над землей.
Tmax - Максимальная температура - максимум температуры воздуха на высоте 2 м над землей.
R - Количество осадков - Количество выпавших осадков за период времени, мм. При наведении курсора мыши на число - период времени, за который выпало указанное количество осадков.
R24 - Количество осадков - Количество выпавших осадков за 24 часа, мм.
S - Снежный покров - Высота снежного покрова, см. При наведении курсора мыши на число - состояние снежного покрова и степень покрытия местности в баллах.